CDT,Max TemperatureF,Mean TemperatureF,Min TemperatureF,Max Dew PointF,MeanDew PointF,Min DewpointF,Max Humidity, Mean Humidity, Min Humidity, Max Sea Level PressureIn, Mean Sea Level PressureIn, Min Sea Level PressureIn, Max VisibilityMiles, Mean VisibilityMiles, Min VisibilityMiles, Max Wind SpeedMPH, Mean Wind SpeedMPH, Max Gust SpeedMPH,PrecipitationIn, CloudCover, Events, WindDirDegrees
2013-3-1,23,13,2,15,5,-2,91,80,68,30.47,30.39,30.30,10,7,1,12,4,14,0.00,1,,16
2013-3-2,28,14,0,20,9,-2,91,80,69,30.43,30.25,30.06,10,6,0,22,9,24,0.00,5,Fog,178
2013-3-3,33,24,15,30,23,12,89,82,75,30.05,29.84,29.69,10,7,4,20,8,23,0.10,5,Rain,124
2013-3-4,36,31,25,28,25,19,85,71,56,29.92,29.77,29.68,10,7,0,16,11,,0.05,7,Fog-Rain-Snow,185
2013-3-5,28,20,11,25,16,6,88,78,68,30.49,30.23,29.93,10,6,0,31,18,41,T,7,Fog-Snow,346
2013-3-6,20,12,4,13,7,0,86,80,73,30.50,30.40,30.28,10,8,2,14,6,16,T,5,Snow,94
2013-3-7,32,21,10,26,19,11,92,82,72,30.25,30.18,30.13,10,9,5,31,13,37,0.00,0,,127
2013-3-8,31,23,14,27,22,10,92,86,80,30.25,30.15,29.99,6,4,3,20,9,23,T,7,,48
2013-3-9,32,26,20,27,24,14,92,85,77,30.09,29.88,29.79,10,4,0,30,16,38,0.05,8,Fog-Snow,359
2013-3-10,23,16,9,16,11,4,83,75,67,30.27,30.19,30.06,10,10,8,28,17,35,T,5,,351
2013-3-11,33,18,2,25,9,0,91,80,68,30.15,29.99,29.85,10,8,2,21,6,36,0.00,4,,294
2013-3-12,28,16,4,23,18,5,84,76,68,30.40,30.13,29.92,10,5,1,35,21,51,0.01,7,Snow,327
2013-3-13,31,12,-8,26,8,-12,87,80,72,30.44,30.33,30.09,10,10,10,23,10,29,0.00,1,,178
2013-3-14,47,31,14,32,24,12,96,79,62,30.15,30.09,30.03,10,8,2,22,6,28,0.00,1,,173
2013-3-15,30,21,12,27,17,8,88,82,75,30.15,30.02,29.92,10,8,2,22,16,30,T,8,Snow,23
2013-3-16,17,9,1,7,2,-6,80,73,58,30.35,30.28,30.14,10,10,7,17,11,24,0.00,3,Snow,14
2013-3-17,34,21,8,30,15,1,92,80,68,30.30,29.86,29.51,10,8,1,33,20,43,0.01,8,Snow,143
2013-3-18,35,19,2,30,8,-4,89,74,59,30.14,29.82,29.46,10,8,1,45,25,58,0.01,6,Snow,305
2013-3-19,19,8,-3,10,3,-7,79,66,53,30.47,30.30,30.15,10,9,2,28,11,33,T,6,Snow,333
2013-3-20,21,11,1,6,1,-6,83,66,49,30.49,30.39,30.23,10,10,10,17,7,21,0.00,0,,333
2013-3-21,24,10,-4,13,2,-8,87,76,65,30.19,30.14,30.06,10,10,10,15,7,18,0.00,0,,67
2013-3-22,28,16,3,19,9,-2,86,75,63,30.17,30.12,30.09,10,10,8,10,6,13,0.00,6,,44
2013-3-23,29,22,15,20,17,13,84,76,68,30.27,30.21,30.11,10,6,2,10,3,12,0.01,8,Snow,8
2013-3-24,28,19,9,21,16,6,84,80,75,30.31,30.20,30.13,10,7,2,20,12,23,T,7,Snow,338
2013-3-25,26,19,11,17,14,9,84,72,60,30.43,30.37,30.31,10,10,7,21,13,25,T,7,Snow,342
2013-3-26,25,13,0,17,9,-5,92,80,68,30.43,30.36,30.30,10,10,3,12,5,14,0.00,1,,102
2013-3-27,38,25,12,29,20,8,88,79,69,30.31,30.26,30.23,10,10,10,14,8,17,0.00,1,,93
2013-3-28,41,31,20,32,26,18,92,81,70,30.25,30.22,30.18,10,6,2,9,4,12,0.00,4,,93
2013-3-29,45,35,24,37,29,22,92,81,70,30.23,30.12,29.94,10,6,3,21,7,24,T,3,,39
2013-3-30,46,36,26,37,32,25,92,83,73,30.04,30.00,29.94,9,6,4,14,6,18,T,4,,337
2013-3-31,36,27,18,30,20,13,85,67,49,30.31,30.12,29.99,10,10,7,22,14,29,0.00,2,,347